EHI
0 0 0 0 0 0 0 0 0 0 0 0 0 0 0 0 0 0 0 0 0 0 0 0 0 0 0 0 0 0 0 0 0 0 0 0 0 0 0 0 0 0 0
0 0 0 0 0 0 0 0 0 0 0 0 0 0 0 0 0 0 0 0 0 0 0 0 0 0 0 0 0 0 0 0 0 0 0 0 0 0 0 0 0 0 0
0 0 0 0 0 0 0 0 0 0 0 0 0 0 0 0 0 0 0 0 0 0 0 0 0 0 0 0 0 0 0 0 0 0 0 0 0 0 0 0 0 0 0
0 0 0 0 0 0 0 0 0 0 0 0 0 0 0 0 0 0 0 0 0 0 0 0 0 0 0 0 0 0 0 0 0 0 0 0 0 0 0 0 0 0 0
0 0 0 0 0 0 0 0 0 0 0 0 0 0 0 0 0 0 0 0 0 0 0 0 0 0 0 0 0 0 0 0 0 0 0 0 0 0 0 0 0 0 0
0 0 0 0 0 0 0 0 0 0 0 0 0 0 0 0 0 0 0 0 0 0 0 0 0 0 0 0 0 0 0 0 0 0 0 0 0 0 0 0 0 0 0
0 0 0 0 0 0 0 0 0 0 0 0 0 0 0 0 0 0 0 0 0 0 0 0 0 0 0 0 0 0 0 0 0 0 0 0 0 0 0 0 0 0 0
0 0 0 0 0 0 0 0 0 0 0 0 0 0 0 0 0 0 0 0 0 0 0 0 0 0 0 0 0 0 0 0 0 0 0 0 0 0 0 0 0 0 0
0 0 0 0 0 0 0 0 0 0 0 0 0 0 0 0 0 0 0 0 0 0 0 0 0 0 0 0 0 0 0 0 0 0 0 0 0 0 0 0 0 0 0
0 0 0 0 0 0 0 0 0 0 0 0 0 0 0 0 0 0 0 0 0 0 0 0 0 0 0 0 0 0 0 0 0 0 0 0 0 0 0 0 0 0 0
0 0 0 0 0 0 0 0 0 0 0 0 0 0 0 0 0 0 0 0 0 0 0 0 0 0 0 0 0 0 0 0 0 0 0 0 0 0 0 0 0 0 0
0 0 0 0 0 0 0 0 0 0 0 0 0 0 0 0 0 0 0 0 0 0 0 0 0 0 0 0 0 0 0 0 0 0 0 0 0 0 0 0 0 0 0
0 0 0 0 0 0 0 0 0 0 0 0 0 0 0 0 0 0 0 0 0 0 0 0 0 0 0 0 0 0 0 0 0 0 0 0 0 0 0 0 0 0 0
0 0 0 0 0 0 0 0 0 0 0 0 0 0 0 0 0 0 0 0 0 0 0 0 0 0 0 0 0 0 0 0 0 0 0 0 0 0 0 0 0 0 0
0 0 0 0 0 0 0 0 0 0 0 0 0 0 0 0 0 0 0 0 0 0 0 0 0 0 0 0 0 0 0 0 0 0 0 0 0 0 0 0 0 0 0
0 0 0 0 0 0 0 0 0 0 0 0 0 0 0 0 0 0 0 0 0 0 0 0 0 0 0 0 0 0 0 0 0 0 0 0 0 0 0 0 0 0 0
0 0 0 0 0 0 0 0 0 0 0 0 0 0 0 0 0 0 0 0 0 0 0 0 0 0 0 0 0 0 0 0 0 0 0 0 0 0 0 0 0 0 0
0 0 0 0 0 0 0 0 0 0 0 0 0 0 0 0 0 0 0 0 0 0 0 0 0 0 0 0 0 0 0 0 0 0 0 0 0 0 0 0 0 0 0
0 0 0 0 0 0 0 0 0 0 0 0 0 0 0 0 0 0 0 0 0 0 0 0 0 0 0 0 0 0 0 0 0 0 0 0 0 0 0 0 0 0 0
0 0 0 0 0 0 0 0 0 0 0 0 0 0 0 0 0 0 0 0 0 0 0 0 0 0 0 0 0 0 0 0 0 0 0 0 0 0 0 0 0 0 0
0 0 0 0 0 0 0 0 0 0 0 0 0 0 0 0 0 0 0 0 0 0 0 0 0 0 0 0 0 0 0 0 0 0 0 0 0 0 0 0 0 0 0
0 0 0 0 0 0 0 0 0 0 0 0 0 0 0 0 0 0 0 0 0 0 0 0 0 0 0 0 0 0 0 0 0 0 0 0 0 0 0 0 0 0 0
0 0 0 0 0 0 0 0 0 0 0 0 0 0 0 0 0 0 0 0 0 0 0 0 0 0 0 0 0 0 0 0 0 0 0 0 0 0 0 0 0 0 0
0 0 0 0 0 0 0 0 0 0 0 0 0 0 0 0 0 0 0 0 0 0 0 0 0 0 0 0 0 0 0 0 0 0 0 0 0 0 0 0 0 0 0
0 0 0 0 0 0 0 0 0 0 0 0 0 0 0 0 0 0 0 0 0 0 0 0 0 0 0 0 0 0 0 0 0 0 0 0 0 0 0 0 0 0 0
0 0 0 0 0 0 0 0 0 0 0 0 0 0 0 0 0 0 0 0 0 0 0 0 0 0 0 0 0 0 0 0 0 0 0 0 0 0 0 0 0 0 0
Wind_Speed
4 5 5 5 5 5 5 5 5 5 4 3 3 3 2 2 2 2 3 4 3 4 3 3 3 3 2 2 2 2 2 2 1 1 1 2 1 1 1 1 2 2 2
4 5 5 5 5 5 5 5 5 4 4 3 2 2 2 2 2 2 3 3 3 3 3 3 2 2 2 2 3 2 2 1 1 1 1 1 2 2 2 2 2 2 2
6 6 5 4 4 5 5 4 4 5 4 3 3 3 2 2 2 2 2 2 3 3 3 3 2 2 2 1 1 1 2 1 1 1 1 1 1 2 1 1 2 3 2
5 5 5 5 4 4 4 4 4 4 3 3 4 4 3 2 2 1 2 2 3 3 2 2 2 2 2 1 1 2 1 1 1 1 2 0 1 0 2 2 1 2 2
6 6 5 5 4 4 4 4 4 4 4 3 3 3 2 2 2 2 2 2 2 2 2 2 2 1 1 1 1 1 1 1 0 0 1 1 1 0 1 2 3 3 2
5 5 4 4 4 4 4 4 4 4 4 3 3 3 3 3 3 2 2 1 1 1 1 1 1 1 1 1 1 1 1 1 1 1 0 0 1 1 1 2 3 3 3
5 5 5 5 4 4 4 4 4 4 4 3 3 3 3 3 3 3 2 2 1 1 0 1 1 0 0 0 0 0 1 1 1 1 1 1 1 1 2 2 3 3 3
3 4 5 4 4 4 4 4 4 3 3 3 2 2 2 2 2 2 2 2 1 1 0 0 0 1 1 1 0 1 1 1 1 2 2 1 2 2 2 2 2 3 3
3 3 3 3 4 4 4 5 5 4 3 3 3 2 2 2 2 1 1 1 1 0 1 0 1 1 1 1 1 1 1 1 2 2 2 2 2 2 2 2 2 3 4
3 3 2 3 3 3 3 4 4 4 3 3 2 2 2 1 1 1 1 1 0 0 1 1 1 1 1 1 1 1 2 2 2 2 2 3 2 2 2 3 3 3 4
2 2 2 2 2 2 3 3 3 3 3 3 2 2 2 2 2 1 1 1 0 0 1 1 2 2 2 2 2 2 2 3 3 3 3 4 3 3 3 3 3 3 3
1 2 2 1 1 2 2 2 3 3 3 3 2 2 2 2 2 2 1 1 1 1 1 2 2 2 3 2 3 3 3 3 4 4 4 4 3 4 3 3 4 4 4
1 1 1 1 1 1 2 2 2 3 2 2 2 2 2 2 2 2 1 1 1 2 2 2 3 3 3 3 4 4 4 4 4 4 4 4 4 5 4 4 4 4 4
1 1 1 0 1 1 1 2 2 2 2 2 2 2 2 2 2 2 2 2 2 2 2 3 3 3 4 4 4 4 4 4 4 4 4 5 5 5 5 5 5 5 5
1 1 1 0 0 0 1 1 1 1 2 2 2 2 2 2 1 1 2 2 2 3 3 3 3 4 4 4 4 4 4 4 5 5 5 6 7 8 7 6 5 5 5
1 1 1 1 1 1 0 0 0 1 1 2 2 2 2 2 2 2 2 2 3 3 3 4 4 5 5 7 8 7 5 5 5 6 6 6 7 9 11 12 11 9 8
2 2 2 2 1 1 1 1 1 1 1 2 2 2 2 2 2 2 2 3 3 3 4 4 5 5 6 9 10 10 6 5 6 6 6 6 7 8 7 9 11 11 12
3 2 1 1 1 1 1 0 1 1 1 2 2 2 2 2 2 2 3 3 3 4 4 5 5 6 7 9 10 10 7 6 7 7 7 7 7 8 8 7 8 8 9
3 3 1 1 1 1 1 1 1 1 2 2 2 2 2 3 3 3 4 3 3 4 4 5 6 6 7 10 10 10 5 6 7 8 8 8 8 11 12 9 9 9 9
2 2 1 0 0 1 1 1 1 2 2 3 3 2 3 3 4 4 4 4 4 5 5 6 5 6 7 10 11 10 5 6 6 7 7 10 11 12 12 9 8 9 9
2 1 0 0 1 0 1 1 2 3 2 2 2 3 3 3 4 4 4 4 4 4 5 6 6 6 7 9 11 12 6 6 6 6 6 6 11 13 13 12 8 10 9
2 1 0 1 1 0 1 1 2 2 1 2 2 3 3 3 3 3 4 4 4 4 5 5 6 5 5 8 9 12 11 9 7 7 6 7 12 13 14 11 11 13 11
1 1 0 1 2 1 1 2 2 1 1 2 3 3 3 3 4 4 4 4 3 4 4 5 5 5 4 5 10 12 12 13 8 7 10 12 13 13 10 11 13 10 6
1 1 0 1 2 2 1 2 2 1 1 2 3 3 3 3 3 3 3 3 3 4 4 5 5 5 4 4 4 5 6 9 8 7 9 12 13 11 10 9 8 6 6
2 1 1 1 2 2 2 2 1 1 1 2 3 3 3 3 3 3 3 4 4 5 5 5 5 5 6 7 10 8 6 6 6 6 5 5 5 5 5 5 5 5 5
2 1 1 1 2 2 2 2 2 1 2 2 2 2 2 2 3 3 3 5 6 8 10 10 9 8 10 13 13 14 14 13 12 8 5 5 5 6 6 6 6 5 6
Wind_Direction
137 130 130 130 128 127 125 124 116 115 119 122 118 114 105 90 75 67 65 59 54 47 49 48 44 42 45 36 43 51 48 35 29 40 4 340 337 54 19 20 18 17 14
139 132 127 134 139 136 134 131 126 123 125 130 124 122 120 105 96 79 68 61 56 48 47 51 40 43 50 45 46 52 41 11 20 50 36 355 342 11 355 2 18 8 3
157 149 141 141 143 141 144 140 133 128 127 127 111 106 91 87 77 75 69 55 56 53 50 48 42 35 47 60 49 56 67 48 357 29 80 111 253 321 308 334 7 6 351
149 151 152 156 155 150 144 136 135 126 120 124 128 137 137 128 130 126 97 69 60 56 51 49 48 42 40 37 24 42 50 85 16 359 17 7 144 198 304 304 336 348 335
155 157 159 160 152 144 143 139 133 127 130 131 134 143 126 115 119 116 107 89 74 67 59 50 49 47 46 38 25 19 30 55 56 329 335 332 339 252 233 283 306 322 299
151 148 145 139 141 142 139 139 138 133 136 138 135 136 133 131 130 128 130 125 109 81 56 43 45 42 44 38 8 5 353 335 303 294 285 283 297 302 286 280 300 301 288
152 151 150 153 151 148 148 146 144 144 143 142 141 142 138 146 153 154 156 148 130 82 66 13 26 13 6 341 324 311 285 278 271 264 268 268 259 275 283 277 287 296 294
149 153 159 160 159 157 156 155 156 153 152 153 148 142 136 144 142 140 147 159 167 178 182 326 314 305 298 291 272 274 278 274 256 274 268 264 265 260 259 260 275 292 289
155 150 150 153 157 163 168 170 164 158 162 161 154 151 148 135 136 137 118 128 155 193 165 242 276 278 278 264 257 246 262 271 259 252 258 263 262 259 262 260 243 244 273
151 150 152 157 162 164 168 165 163 161 160 158 167 166 148 136 131 146 143 137 126 29 206 226 246 260 267 256 246 250 251 254 262 259 255 261 264 264 262 261 259 248 246
152 152 152 155 151 144 149 160 159 153 154 158 161 153 154 155 145 156 169 176 205 216 238 248 246 248 248 249 244 248 250 250 258 261 259 260 263 264 261 265 261 255 247
128 132 147 143 139 151 157 162 157 157 162 161 159 158 162 163 166 181 192 202 220 231 250 259 259 260 261 252 244 245 250 248 253 256 257 260 263 262 263 260 259 257 252
102 101 115 134 143 152 155 164 166 165 158 154 159 161 172 183 195 201 203 217 235 245 257 261 259 260 262 261 256 246 246 247 249 251 252 256 256 261 261 262 263 262 263
121 119 125 152 178 173 169 168 168 156 153 150 163 185 201 206 207 209 218 227 236 243 251 262 263 264 265 264 263 261 254 251 253 256 259 258 253 256 259 260 257 261 261
128 168 192 208 208 198 173 151 151 149 157 162 183 208 215 217 218 220 230 242 249 256 254 260 265 267 266 260 260 261 258 257 260 261 261 259 258 259 259 262 259 259 258
279 260 228 211 226 228 225 138 161 172 162 175 206 219 215 219 221 225 233 245 252 255 255 257 260 262 266 268 269 269 261 260 262 267 267 265 261 262 264 265 265 262 259
288 270 244 225 221 222 208 212 223 199 176 195 219 224 222 230 237 244 249 247 247 252 256 257 257 260 259 264 267 267 266 256 256 261 266 268 265 267 264 268 269 266 263
297 289 266 241 226 228 201 217 222 201 205 214 225 230 228 244 252 249 251 252 252 251 255 257 255 258 259 263 267 271 268 261 260 258 257 260 264 261 264 264 265 262 261
292 286 271 245 231 202 177 162 236 224 224 232 232 233 232 241 247 251 255 260 260 261 258 259 255 254 260 263 265 267 263 262 263 261 258 257 257 261 267 267 265 266 265
308 306 295 174 203 230 159 167 228 229 239 246 249 247 244 245 249 252 259 263 262 265 267 268 261 255 256 261 264 265 256 259 263 263 260 258 260 264 266 264 263 266 269
321 336 349 289 255 227 151 211 240 245 248 259 268 267 262 258 256 258 262 259 264 265 263 268 266 257 257 263 265 265 258 251 258 262 263 261 266 267 268 268 265 268 277
329 344 3 319 317 316 177 238 260 263 250 254 266 269 269 268 266 257 263 261 257 259 262 265 267 260 258 264 264 265 266 267 261 261 263 264 268 270 271 271 271 275 280
309 324 320 309 316 318 235 244 269 271 262 262 265 266 272 270 263 255 259 260 254 256 261 261 263 265 262 261 266 269 271 272 268 264 266 270 272 274 271 270 274 274 268
299 314 323 299 305 309 295 260 264 259 254 265 272 270 268 269 267 264 258 257 254 257 261 262 267 272 272 268 266 266 270 272 272 271 269 271 273 273 272 273 271 263 258
312 304 263 274 286 303 306 297 275 225 244 263 272 276 276 272 274 274 266 265 259 259 266 265 267 272 273 271 278 281 274 270 268 279 274 267 267 266 264 266 264 261 260
311 311 303 292 289 302 307 305 295 254 243 266 275 275 274 273 275 278 290 289 280 282 281 281 279 278 279 282 280 281 281 280 278 277 266 265 264 264 265 267 268 266 262